Powrót do katalogu

COSMOS 2251 DEB

AktywnyLEO
NORAD 34962·DEBRIS·🇷🇺 Russia

Wystrzelony Jun 16, 1993 z Plesetsk Cosmodrome

Loading…

Następne Przeloty (najbliższe 24 godziny)

TLE

ŚwieżeSource: Space-Track

Epoka: Sep 13, 2026, 19:44 UTC

1 34962U 93036AER 26256.82230194  .00000970  00000-0  27206-3 0  9991
2 34962  74.0299  39.1338 0017580  86.2275 274.0894 14.47278148915572

Śledź COSMOS 2251 DEB w czasie rzeczywistym z AllMySat

Download on the App Store